| time (UTC) | temp F | wind direction | speed MPH | gust MPH | rain 1hr in | rain 24hr in | rain mn in | humidity % | barometer mb |
| 20260902063150 | 62 | 115 | 2.0 | 5.0 | 0.00 | 0.00 | 0.00 | 61 | 1015.6 |
| 20260902062650 | 62 | 139 | 0.0 | 4.0 | 0.00 | 0.00 | 0.00 | 61 | 1015.5 |
| 20260902062145 | 62 | 141 | 5.0 | 8.0 | 0.00 | 0.00 | 0.00 | 61 | 1015.6 |
| 20260902061644 | 62 | 109 | 1.0 | 6.0 | 0.00 | 0.00 | 0.00 | 62 | 1015.6 |
| 20260902061140 | 62 | 132 | 7.0 | 7.0 | 0.00 | 0.00 | 0.00 | 61 | 1015.7 |
| 20260902060636 | 62 | 99 | 2.0 | 8.0 | 0.00 | 0.00 | 0.00 | 61 | 1015.9 |
| 20260902060132 | 62 | 127 | 2.0 | 8.0 | 0.00 | 0.00 | 0.00 | 62 | 1015.9 |
| 20260902055628 | 62 | 144 | 5.0 | 8.0 | 0.00 | 0.42 | 0.42 | 61 | 1015.9 |
| 20260902055123 | 62 | 122 | 3.0 | 6.0 | 0.00 | 0.42 | 0.42 | 62 | 1016.0 |
| 20260902054618 | 62 | 196 | 2.0 | 6.0 | 0.00 | 0.42 | 0.42 | 61 | 1016.0 |
| 20260902054114 | 62 | 134 | 5.0 | 11.0 | 0.00 | 0.42 | 0.42 | 61 | 1016.1 |
| 20260902053609 | 62 | 172 | 2.0 | 9.0 | 0.00 | 0.42 | 0.42 | 61 | 1016.1 |
| 20260902053109 | 62 | 151 | 0.0 | 11.0 | 0.00 | 0.42 | 0.42 | 61 | 1016.1 |
| 20260902052603 | 62 | 137 | 6.0 | 10.0 | 0.00 | 0.42 | 0.42 | 61 | 1016.1 |
| 20260902052059 | 61 | 146 | 4.0 | 5.0 | 0.00 | 0.42 | 0.42 | 63 | 1016.1 |
| 20260902051558 | 61 | 152 | 2.0 | 6.0 | 0.00 | 0.42 | 0.42 | 62 | 1016.2 |
| 20260902051057 | 61 | 145 | 1.0 | 5.0 | 0.00 | 0.42 | 0.42 | 62 | 1016.2 |
| 20260902050552 | 62 | 95 | 2.0 | 4.0 | 0.00 | 0.42 | 0.42 | 61 | 1016.1 |
| 20260902050048 | 62 | 90 | 2.0 | 6.0 | 0.00 | 0.42 | 0.42 | 61 | 1016.2 |
| 20260902045543 | 61 | 128 | 2.0 | 5.0 | 0.00 | 0.42 | 0.42 | 62 | 1016.1 |
| 20260902045039 | 61 | 140 | 3.0 | 5.0 | 0.00 | 0.42 | 0.42 | 62 | 1016.1 |
| 20260902044533 | 61 | 104 | 3.0 | 3.0 | 0.00 | 0.42 | 0.42 | 63 | 1016.2 |
| 20260902044029 | 61 | 112 | 3.0 | 5.0 | 0.00 | 0.42 | 0.42 | 63 | 1016.1 |
| 20260902043524 | 61 | 102 | 3.0 | 4.0 | 0.00 | 0.42 | 0.42 | 63 | 1016.1 |
| 20260902043019 | 62 | 125 | 2.0 | 6.0 | 0.00 | 0.42 | 0.42 | 62 | 1016.1 |
| 20260902042518 | 61 | 117 | 4.0 | 5.0 | 0.00 | 0.42 | 0.42 | 63 | 1016.2 |
| 20260902042014 | 62 | 90 | 2.0 | 4.0 | 0.00 | 0.42 | 0.42 | 62 | 1016.4 |
| 20260902041508 | 62 | 133 | 3.0 | 6.0 | 0.00 | 0.42 | 0.42 | 62 | 1016.4 |
| 20260902041002 | 62 | 133 | 3.0 | 8.0 | 0.00 | 0.42 | 0.42 | 62 | 1016.2 |
| 20260902040457 | 61 | 117 | 3.0 | 7.0 | 0.00 | 0.42 | 0.42 | 64 | 1016.5 |
| 20260902035956 | 58 | 105 | 3.0 | 5.0 | 0.00 | 0.42 | 0.42 | 72 | 1016.4 |
| 20260902035450 | 59 | 5 | 3.0 | 3.0 | 0.00 | 0.42 | 0.42 | 72 | 1016.2 |
| 20260902034945 | 62 | 109 | 2.0 | 5.0 | 0.00 | 0.42 | 0.42 | 63 | 1016.2 |
| 20260902034439 | 61 | 141 | 2.0 | 5.0 | 0.00 | 0.42 | 0.42 | 64 | 1016.4 |
| 20260902033938 | 61 | 140 | 5.0 | 5.0 | 0.00 | 0.42 | 0.42 | 66 | 1016.2 |
| 20260902033432 | 58 | 121 | 4.0 | 6.0 | 0.00 | 0.42 | 0.42 | 73 | 1016.1 |
| 20260902032931 | 56 | 22 | 2.0 | 2.0 | 0.00 | 0.42 | 0.42 | 81 | 1016.1 |
| 20260902032426 | 56 | 75 | 1.0 | 3.0 | 0.00 | 0.42 | 0.42 | 81 | 1016.0 |
| 20260902031920 | 56 | 36 | 3.0 | 4.0 | 0.00 | 0.42 | 0.42 | 82 | 1015.9 |
| 20260902031410 | 57 | 14 | 3.0 | 4.0 | 0.00 | 0.42 | 0.42 | 83 | 1015.9 |
| 20260902030907 | 57 | 30 | 2.0 | 3.0 | 0.00 | 0.42 | 0.42 | 83 | 1015.6 |
| 20260902030401 | 57 | 20 | 0.0 | 1.0 | 0.00 | 0.42 | 0.42 | 83 | 1015.6 |
| 20260902025859 | 57 | 81 | 0.0 | 2.0 | 0.00 | 0.42 | 0.42 | 83 | 1015.6 |
| 20260902025355 | 57 | 97 | 1.0 | 2.0 | 0.00 | 0.42 | 0.42 | 84 | 1015.6 |
| 20260902024850 | 57 | 90 | 2.0 | 5.0 | 0.00 | 0.42 | 0.42 | 83 | 1015.7 |
| 20260902024346 | 58 | 21 | 2.0 | 2.0 | 0.00 | 0.42 | 0.42 | 81 | 1015.6 |
| 20260902023840 | 58 | 98 | 0.0 | 2.0 | 0.00 | 0.42 | 0.42 | 82 | 1015.6 |
| 20260902023330 | 58 | 23 | 1.0 | 3.0 | 0.00 | 0.42 | 0.42 | 82 | 1015.5 |
| 20260902022828 | 59 | 3 | 2.0 | 3.0 | 0.00 | 0.42 | 0.42 | 82 | 1015.5 |
| 20260902022324 | 59 | 30 | 2.0 | 5.0 | 0.00 | 0.42 | 0.42 | 82 | 1015.7 |
| 20260902021820 | 59 | 7 | 2.0 | 4.0 | 0.00 | 0.42 | 0.42 | 81 | 1015.7 |
| 20260902021314 | 59 | 0 | 0.0 | 3.0 | 0.00 | 0.42 | 0.42 | 82 | 1015.7 |
| 20260902020805 | 58 | 90 | 0.0 | 2.0 | 0.00 | 0.42 | 0.42 | 82 | 1015.7 |
| 20260902020301 | 59 | 84 | 2.0 | 2.0 | 0.00 | 0.42 | 0.42 | 80 | 1015.7 |
| 20260902015756 | 59 | 60 | 0.0 | 1.0 | 0.00 | 0.42 | 0.42 | 80 | 1015.9 |
| 20260902015253 | 60 | 95 | 2.0 | 3.0 | 0.00 | 0.42 | 0.42 | 80 | 1015.7 |
| 20260902014748 | 60 | 87 | 3.0 | 4.0 | 0.00 | 0.42 | 0.42 | 80 | 1015.7 |
| 20260902014245 | 61 | 77 | 0.0 | 2.0 | 0.00 | 0.42 | 0.42 | 81 | 1015.9 |
| 20260902013743 | 61 | 96 | 2.0 | 2.0 | 0.00 | 0.42 | 0.42 | 80 | 1015.6 |
| 20260902013239 | 62 | 96 | 0.0 | 2.0 | 0.00 | 0.42 | 0.42 | 76 | 1015.7 |
| 20260902012733 | 63 | 90 | 0.0 | 0.0 | 0.00 | 0.42 | 0.42 | 73 | 1015.6 |
| 20260902012230 | 64 | 90 | 0.0 | 2.0 | 0.00 | 0.42 | 0.42 | 69 | 1015.7 |
| 20260902011724 | 64 | 74 | 0.0 | 1.0 | 0.00 | 0.42 | 0.42 | 68 | 1015.7 |
| 20260902011223 | 65 | 180 | 0.0 | 3.0 | 0.00 | 0.42 | 0.42 | 66 | 1015.7 |
| 20260902010718 | 65 | 196 | 2.0 | 3.0 | 0.00 | 0.42 | 0.42 | 65 | 1015.7 |
| 20260902010214 | 65 | 173 | 2.0 | 4.0 | 0.00 | 0.42 | 0.42 | 64 | 1015.7 |
| 20260902005712 | 66 | 191 | 2.0 | 5.0 | 0.00 | 0.42 | 0.42 | 63 | 1015.6 |
| 20260902005208 | 66 | 166 | 5.0 | 6.0 | 0.00 | 0.42 | 0.42 | 61 | 1015.7 |
| 20260902004707 | 66 | 215 | 4.0 | 10.0 | 0.00 | 0.42 | 0.42 | 60 | 1015.7 |
| 20260902004202 | 67 | 169 | 4.0 | 8.0 | 0.00 | 0.42 | 0.42 | 61 | 1015.9 |
| 20260902003652 | 67 | 163 | 7.0 | 7.0 | 0.00 | 0.42 | 0.42 | 61 | 1016.0 |
| 20260902003147 | 67 | 185 | 3.0 | 6.0 | 0.00 | 0.42 | 0.42 | 61 | 1016.1 |
| 20260902002643 | 68 | 215 | 3.0 | 5.0 | 0.00 | 0.42 | 0.42 | 60 | 1016.2 |
| 20260902002142 | 69 | 211 | 4.0 | 6.0 | 0.00 | 0.42 | 0.42 | 59 | 1016.0 |
| 20260902001638 | 69 | 207 | 3.0 | 7.0 | 0.00 | 0.42 | 0.42 | 57 | 1016.1 |
| 20260902001132 | 70 | 180 | 2.0 | 4.0 | 0.00 | 0.42 | 0.42 | 58 | 1016.0 |
| 20260902000628 | 70 | 230 | 3.0 | 5.0 | 0.00 | 0.42 | 0.42 | 57 | 1016.1 |
| 20260902000122 | 70 | 207 | 4.0 | 7.0 | 0.00 | 0.42 | 0.42 | 56 | 1016.0 |
| 20260901235622 | 70 | 243 | 3.0 | 5.0 | 0.00 | 0.42 | 0.42 | 56 | 1016.2 |
| 20260901235118 | 71 | 159 | 4.0 | 6.0 | 0.00 | 0.42 | 0.42 | 55 | 1016.1 |
| 20260901234616 | 69 | 175 | 2.0 | 9.0 | 0.00 | 0.42 | 0.42 | 58 | 1016.2 |
| 20260901234112 | 69 | 217 | 2.0 | 9.0 | 0.00 | 0.42 | 0.42 | 56 | 1016.1 |
| 20260901233607 | 71 | 221 | 4.0 | 5.0 | 0.00 | 0.42 | 0.42 | 56 | 1016.2 |
| 20260901233103 | 70 | 222 | 5.0 | 9.0 | 0.00 | 0.42 | 0.42 | 56 | 1016.4 |
| 20260901232558 | 69 | 229 | 4.0 | 7.0 | 0.00 | 0.42 | 0.42 | 60 | 1016.4 |
| 20260901232058 | 68 | 188 | 4.0 | 5.0 | 0.00 | 0.42 | 0.42 | 57 | 1016.4 |
| 20260901231554 | 69 | 188 | 2.0 | 7.0 | 0.00 | 0.42 | 0.42 | 59 | 1016.5 |
| 20260901231050 | 68 | 219 | 5.0 | 7.0 | 0.00 | 0.42 | 0.42 | 58 | 1016.4 |
| 20260901230546 | 69 | 209 | 2.0 | 6.0 | 0.00 | 0.42 | 0.42 | 57 | 1016.5 |
| 20260901230041 | 70 | 164 | 5.0 | 6.0 | 0.00 | 0.42 | 0.42 | 57 | 1016.5 |
| 20260901225535 | 69 | 190 | 4.0 | 10.0 | 0.00 | 0.42 | 0.42 | 56 | 1016.5 |
| 20260901225035 | 70 | 180 | 1.0 | 7.0 | 0.00 | 0.42 | 0.42 | 56 | 1016.5 |
| 20260901224531 | 70 | 225 | 5.0 | 5.0 | 0.00 | 0.42 | 0.42 | 56 | 1016.5 |
| 20260901224022 | 68 | 222 | 5.0 | 8.0 | 0.00 | 0.42 | 0.42 | 57 | 1016.8 |
| 20260901223517 | 68 | 209 | 6.0 | 8.0 | 0.00 | 0.42 | 0.42 | 59 | 1016.7 |
| 20260901223012 | 68 | 215 | 4.0 | 7.0 | 0.00 | 0.42 | 0.42 | 59 | 1016.8 |
| 20260901222508 | 69 | 212 | 6.0 | 8.0 | 0.00 | 0.42 | 0.42 | 58 | 1017.0 |
| 20260901222004 | 68 | 180 | 2.0 | 5.0 | 0.00 | 0.42 | 0.42 | 57 | 1016.8 |
| 20260901221500 | 68 | 184 | 4.0 | 9.0 | 0.00 | 0.42 | 0.42 | 57 | 1017.2 |
| 20260901220955 | 70 | 209 | 6.0 | 8.0 | 0.00 | 0.42 | 0.42 | 57 | 1017.1 |
| 20260901220454 | 70 | 250 | 2.0 | 11.0 | 0.00 | 0.42 | 0.42 | 57 | 1017.3 |
| 20260901215952 | 69 | 220 | 6.0 | 12.0 | 0.00 | 0.42 | 0.42 | 58 | 1017.3 |
| 20260901215450 | 68 | 227 | 7.0 | 9.0 | 0.00 | 0.42 | 0.42 | 60 | 1017.4 |
| 20260901214950 | 68 | 97 | 4.0 | 12.0 | 0.00 | 0.42 | 0.42 | 59 | 1017.6 |
| 20260901214448 | 70 | 180 | 2.0 | 11.0 | 0.00 | 0.42 | 0.42 | 55 | 1017.6 |
| 20260901213943 | 71 | 167 | 7.0 | 11.0 | 0.00 | 0.42 | 0.42 | 57 | 1017.6 |
| 20260901213432 | 71 | 165 | 5.0 | 8.0 | 0.00 | 0.42 | 0.42 | 56 | 1017.8 |
| 20260901212931 | 70 | 205 | 7.0 | 9.0 | 0.00 | 0.42 | 0.42 | 57 | 1017.7 |
| 20260901212427 | 68 | 209 | 6.0 | 12.0 | 0.00 | 0.42 | 0.42 | 58 | 1017.7 |
| 20260901211924 | 70 | 160 | 6.0 | 11.0 | 0.00 | 0.42 | 0.42 | 55 | 1017.9 |
| 20260901211419 | 70 | 137 | 5.0 | 12.0 | 0.00 | 0.42 | 0.42 | 57 | 1018.2 |
| 20260901210914 | 68 | 239 | 2.0 | 8.0 | 0.00 | 0.42 | 0.42 | 61 | 1018.1 |
| 20260901210410 | 69 | 185 | 5.0 | 10.0 | 0.00 | 0.42 | 0.42 | 61 | 1018.1 |
| 20260901205907 | 67 | 169 | 6.0 | 10.0 | 0.00 | 0.42 | 0.42 | 62 | 1018.4 |
| 20260901205402 | 68 | 218 | 8.0 | 11.0 | 0.00 | 0.42 | 0.42 | 62 | 1018.3 |
| 20260901204856 | 66 | 209 | 8.0 | 15.0 | 0.00 | 0.42 | 0.42 | 61 | 1018.5 |
| 20260901204352 | 67 | 155 | 5.0 | 10.0 | 0.00 | 0.42 | 0.42 | 60 | 1018.4 |
| 20260901203846 | 70 | 204 | 4.0 | 11.0 | 0.00 | 0.42 | 0.42 | 61 | 1018.4 |
| 20260901203340 | 68 | 230 | 6.0 | 11.0 | 0.00 | 0.42 | 0.42 | 60 | 1018.5 |
| 20260901202835 | 67 | 192 | 3.0 | 11.0 | 0.00 | 0.42 | 0.42 | 62 | 1018.5 |
| 20260901202330 | 67 | 158 | 8.0 | 10.0 | 0.00 | 0.42 | 0.42 | 61 | 1018.7 |
| 20260901201826 | 67 | 261 | 5.0 | 8.0 | 0.00 | 0.42 | 0.42 | 62 | 1018.7 |
| 20260901201325 | 68 | 199 | 5.0 | 8.0 | 0.00 | 0.42 | 0.42 | 63 | 1018.8 |
| 20260901200819 | 66 | 238 | 5.0 | 12.0 | 0.00 | 0.42 | 0.42 | 63 | 1018.8 |
| 20260901200315 | 68 | 180 | 4.0 | 8.0 | 0.00 | 0.42 | 0.42 | 64 | 1018.9 |
| 20260901195813 | 66 | 230 | 4.0 | 11.0 | 0.00 | 0.42 | 0.42 | 63 | 1018.8 |
| 20260901195307 | 66 | 147 | 7.0 | 8.0 | 0.00 | 0.42 | 0.42 | 64 | 1018.9 |
| 20260901194803 | 64 | 266 | 8.0 | 11.0 | 0.00 | 0.42 | 0.42 | 66 | 1019.3 |
| 20260901194258 | 67 | 209 | 5.0 | 8.0 | 0.00 | 0.42 | 0.42 | 66 | 1018.8 |
| 20260901193754 | 65 | 241 | 4.0 | 11.0 | 0.00 | 0.42 | 0.42 | 65 | 1018.9 |
| 20260901193252 | 67 | 215 | 6.0 | 7.0 | 0.00 | 0.42 | 0.42 | 63 | 1018.9 |
| 20260901192747 | 64 | 216 | 7.0 | 12.0 | 0.00 | 0.42 | 0.42 | 68 | 1019.0 |
| 20260901192243 | 65 | 186 | 4.0 | 10.0 | 0.00 | 0.42 | 0.42 | 70 | 1018.8 |
| 20260901191739 | 66 | 159 | 4.0 | 8.0 | 0.00 | 0.42 | 0.42 | 68 | 1018.9 |
| 20260901191235 | 65 | 169 | 5.0 | 10.0 | 0.00 | 0.42 | 0.42 | 67 | 1019.0 |
| 20260901190730 | 64 | 180 | 0.0 | 8.0 | 0.00 | 0.42 | 0.42 | 71 | 1019.1 |
| 20260901190229 | 63 | 174 | 4.0 | 9.0 | 0.00 | 0.42 | 0.42 | 73 | 1019.0 |
| 20260901185728 | 66 | 202 | 6.0 | 8.0 | 0.00 | 0.42 | 0.42 | 69 | 1019.1 |
| 20260901185227 | 64 | 180 | 5.0 | 7.0 | 0.00 | 0.42 | 0.42 | 74 | 1019.3 |
| 20260901184723 | 63 | 182 | 3.0 | 11.0 | 0.00 | 0.42 | 0.42 | 73 | 1019.3 |
| 20260901184212 | 64 | 175 | 9.0 | 11.0 | 0.00 | 0.42 | 0.42 | 71 | 1019.3 |
| 20260901183708 | 64 | 180 | 1.0 | 7.0 | 0.00 | 0.42 | 0.42 | 72 | 1019.1 |
| 20260901183207 | 63 | 154 | 2.0 | 7.0 | 0.00 | 0.42 | 0.42 | 72 | 1019.3 |
| 20260901182703 | 64 | 193 | 3.0 | 7.0 | 0.00 | 0.42 | 0.42 | 75 | 1019.1 |
| 20260901182156 | 63 | 197 | 6.0 | 8.0 | 0.00 | 0.42 | 0.42 | 73 | 1019.1 |
| 20260901181651 | 64 | 161 | 4.0 | 6.0 | 0.00 | 0.42 | 0.42 | 76 | 1019.3 |
| 20260901181145 | 62 | 142 | 7.0 | 7.0 | 0.00 | 0.42 | 0.42 | 76 | 1019.3 |
| 20260901180639 | 62 | 213 | 3.0 | 6.0 | 0.00 | 0.42 | 0.42 | 79 | 1019.5 |
| 20260901180133 | 61 | 231 | 3.0 | 7.0 | 0.00 | 0.42 | 0.42 | 80 | 1019.4 |
| 20260901175632 | 62 | 123 | 2.0 | 11.0 | 0.00 | 0.42 | 0.42 | 80 | 1019.5 |
| 20260901175122 | 62 | 144 | 6.0 | 6.0 | 0.00 | 0.42 | 0.42 | 78 | 1019.5 |
| 20260901174618 | 61 | 120 | 0.0 | 5.0 | 0.00 | 0.42 | 0.42 | 80 | 1019.5 |
| 20260901174113 | 60 | 103 | 2.0 | 6.0 | 0.00 | 0.42 | 0.42 | 81 | 1019.5 |
| 20260901173607 | 62 | 77 | 3.0 | 4.0 | 0.00 | 0.42 | 0.42 | 82 | 1019.8 |
| 20260901173103 | 60 | 229 | 3.0 | 3.0 | 0.00 | 0.42 | 0.42 | 80 | 1019.6 |
| 20260901172559 | 59 | 270 | 1.0 | 3.0 | 0.00 | 0.42 | 0.42 | 81 | 1019.8 |
| 20260901172057 | 60 | 151 | 5.0 | 5.0 | 0.00 | 0.42 | 0.42 | 84 | 1019.9 |
| 20260901171556 | 58 | 143 | 2.0 | 5.0 | 0.00 | 0.42 | 0.42 | 86 | 1019.9 |
| 20260901171056 | 57 | 114 | 0.0 | 3.0 | 0.00 | 0.42 | 0.42 | 85 | 1020.0 |
| 20260901170549 | 57 | 121 | 3.0 | 4.0 | 0.00 | 0.42 | 0.42 | 84 | 1020.0 |
| 20260901170044 | 56 | 159 | 3.0 | 5.0 | 0.00 | 0.42 | 0.42 | 85 | 1019.8 |
| 20260901165543 | 57 | 114 | 0.0 | 2.0 | 0.00 | 0.42 | 0.42 | 87 | 1019.8 |
| 20260901165039 | 57 | 98 | 1.0 | 2.0 | 0.00 | 0.42 | 0.42 | 92 | 1019.9 |
| 20260901164535 | 56 | 26 | 1.0 | 2.0 | 0.00 | 0.42 | 0.42 | 94 | 1019.6 |
| 20260901164029 | 56 | 99 | 2.0 | 5.0 | 0.00 | 0.42 | 0.42 | 95 | 1019.8 |
| 20260901163525 | 55 | 109 | 3.0 | 5.0 | 0.00 | 0.42 | 0.42 | 95 | 1019.6 |
| 20260901163024 | 55 | 352 | 0.0 | 3.0 | 0.00 | 0.42 | 0.42 | 95 | 1019.8 |
| 20260901162519 | 55 | 90 | 1.0 | 2.0 | 0.00 | 0.42 | 0.42 | 97 | 1019.5 |
| 20260901162019 | 54 | 95 | 2.0 | 4.0 | 0.00 | 0.42 | 0.42 | 98 | 1019.5 |
| 20260901161518 | 54 | 98 | 2.0 | 4.0 | 0.00 | 0.42 | 0.42 | 99 | 1019.5 |
| 20260901161018 | 55 | 95 | 2.0 | 4.0 | 0.00 | 0.42 | 0.42 | 99 | 1019.5 |
| 20260901160514 | 54 | 60 | 1.0 | 6.0 | 0.00 | 0.42 | 0.42 | 99 | 1019.4 |
| 20260901160014 | 54 | 23 | 0.0 | 2.0 | 0.00 | 0.42 | 0.42 | 99 | 1019.6 |
| 20260901155508 | 54 | 117 | 0.0 | 3.0 | 0.00 | 0.42 | 0.42 | 99 | 1019.8 |
| 20260901155005 | 53 | 12 | 0.0 | 3.0 | 0.00 | 0.42 | 0.42 | 99 | 1019.8 |
| 20260901154504 | 52 | 19 | 2.0 | 3.0 | 0.00 | 0.42 | 0.42 | 99 | 1019.8 |
| 20260901153959 | 52 | 27 | 3.0 | 3.0 | 0.00 | 0.42 | 0.42 | 99 | 1019.8 |
| 20260901153458 | 52 | 71 | 0.0 | 2.0 | 0.02 | 0.42 | 0.42 | 99 | 1019.8 |
| 20260901152953 | 51 | 123 | 2.0 | 3.0 | 0.05 | 0.42 | 0.42 | 99 | 1020.1 |
| 20260901152453 | 51 | 113 | 3.0 | 5.0 | 0.05 | 0.42 | 0.42 | 99 | 1020.1 |
| 20260901151947 | 52 | 166 | 3.0 | 4.0 | 0.07 | 0.42 | 0.42 | 99 | 1020.2 |
| 20260901151442 | 51 | 177 | 3.0 | 3.0 | 0.09 | 0.41 | 0.41 | 99 | 1020.0 |
| 20260901150941 | 51 | 254 | 0.0 | 0.0 | 0.12 | 0.41 | 0.41 | 99 | 1020.0 |
| 20260901150439 | 51 | 202 | 2.0 | 2.0 | 0.21 | 0.39 | 0.39 | 99 | 1020.0 |
| 20260901145936 | 51 | 255 | 0.0 | 1.0 | 0.33 | 0.38 | 0.38 | 99 | 1020.0 |
| 20260901145431 | 51 | 126 | 0.0 | 1.0 | 0.31 | 0.36 | 0.36 | 99 | 1020.1 |
| 20260901144926 | 51 | 249 | 1.0 | 2.0 | 0.35 | 0.33 | 0.33 | 99 | 1020.0 |
| 20260901144421 | 52 | 200 | 0.0 | 3.0 | 0.33 | 0.30 | 0.30 | 99 | 1019.9 |
| 20260901143917 | 52 | 240 | 2.0 | 5.0 | 0.14 | 0.26 | 0.26 | 99 | 1019.8 |
| 20260901143413 | 52 | 231 | 0.0 | 4.0 | 0.09 | 0.24 | 0.24 | 99 | 1019.8 |
| 20260901142909 | 52 | 249 | 3.0 | 4.0 | 0.07 | 0.23 | 0.23 | 99 | 1019.5 |
| 20260901142409 | 52 | 148 | 1.0 | 3.0 | 0.12 | 0.22 | 0.22 | 99 | 1019.6 |
| 20260901141904 | 52 | 240 | 0.0 | 0.0 | 0.17 | 0.22 | 0.22 | 99 | 1019.4 |
| 20260901141358 | 52 | 0 | 0.0 | 0.0 | 0.19 | 0.20 | 0.20 | 99 | 1019.4 |
| 20260901140857 | 52 | 0 | 0.0 | 0.0 | 0.14 | 0.18 | 0.18 | 99 | 1019.6 |
| 20260901140356 | 52 | 15 | 0.0 | 1.0 | 0.02 | 0.16 | 0.16 | 99 | 1019.4 |
| 20260901135850 | 52 | 0 | 0.0 | 2.0 | 0.00 | 0.16 | 0.16 | 99 | 1019.5 |
| 20260901135346 | 52 | 40 | 0.0 | 2.0 | 0.00 | 0.16 | 0.16 | 99 | 1019.4 |
| 20260901134841 | 52 | 337 | 0.0 | 1.0 | 0.00 | 0.16 | 0.16 | 99 | 1019.5 |
| 20260901134337 | 52 | 106 | 0.0 | 2.0 | 0.00 | 0.16 | 0.16 | 99 | 1019.5 |
| 20260901133831 | 52 | 23 | 0.0 | 1.0 | 0.02 | 0.16 | 0.16 | 99 | 1019.4 |
| 20260901133330 | 52 | 29 | 2.0 | 3.0 | 0.05 | 0.16 | 0.16 | 99 | 1019.4 |
| 20260901132828 | 52 | 15 | 0.0 | 1.0 | 0.05 | 0.15 | 0.15 | 99 | 1019.4 |
| 20260901132323 | 52 | 7 | 0.0 | 0.0 | 0.02 | 0.15 | 0.15 | 99 | 1019.4 |
| 20260901131818 | 52 | 14 | 0.0 | 2.0 | 0.05 | 0.15 | 0.15 | 99 | 1019.3 |
| 20260901131317 | 52 | 90 | 0.0 | 0.0 | 0.09 | 0.15 | 0.15 | 99 | 1019.4 |
| 20260901130812 | 52 | 90 | 0.0 | 2.0 | 0.09 | 0.14 | 0.14 | 99 | 1019.1 |
| 20260901130307 | 52 | 103 | 2.0 | 2.0 | 0.12 | 0.13 | 0.13 | 99 | 1019.1 |
| 20260901125804 | 52 | 125 | 2.0 | 3.0 | 0.09 | 0.12 | 0.12 | 99 | 1019.1 |
| 20260901125259 | 51 | 104 | 4.0 | 4.0 | 0.07 | 0.11 | 0.11 | 99 | 1019.3 |
| 20260901124754 | 51 | 127 | 2.0 | 3.0 | 0.05 | 0.10 | 0.10 | 99 | 1019.1 |
| 20260901124248 | 51 | 114 | 2.0 | 3.0 | 0.02 | 0.09 | 0.09 | 99 | 1018.9 |
| 20260901123748 | 51 | 106 | 1.0 | 3.0 | 0.00 | 0.09 | 0.09 | 99 | 1018.9 |
| 20260901123243 | 51 | 105 | 2.0 | 4.0 | 0.00 | 0.09 | 0.09 | 99 | 1018.9 |
| 20260901122737 | 51 | 29 | 0.0 | 3.0 | 0.02 | 0.09 | 0.09 | 99 | 1018.9 |
| 20260901122231 | 51 | 101 | 3.0 | 3.0 | 0.02 | 0.09 | 0.09 | 99 | 1019.0 |
| 20260901121725 | 51 | 112 | 2.0 | 3.0 | 0.00 | 0.09 | 0.09 | 99 | 1018.9 |
| 20260901121220 | 52 | 112 | 2.0 | 4.0 | 0.00 | 0.09 | 0.09 | 99 | 1018.8 |
| 20260901120720 | 51 | 129 | 4.0 | 4.0 | 0.02 | 0.09 | 0.09 | 99 | 1019.0 |
| 20260901120215 | 51 | 153 | 3.0 | 4.0 | 0.00 | 0.08 | 0.08 | 99 | 1019.0 |
| 20260901115710 | 52 | 153 | 3.0 | 5.0 | 0.05 | 0.08 | 0.08 | 99 | 1019.0 |
| 20260901115206 | 52 | 152 | 4.0 | 6.0 | 0.05 | 0.08 | 0.08 | 99 | 1019.1 |
| 20260901114702 | 52 | 140 | 4.0 | 5.0 | 0.02 | 0.07 | 0.07 | 99 | 1019.0 |
| 20260901114202 | 52 | 159 | 3.0 | 6.0 | 0.00 | 0.07 | 0.07 | 99 | 1019.1 |
| 20260901113656 | 52 | 150 | 3.0 | 6.0 | 0.00 | 0.07 | 0.07 | 99 | 1019.1 |
| 20260901113151 | 52 | 134 | 4.0 | 4.0 | 0.00 | 0.07 | 0.07 | 99 | 1019.0 |
| 20260901112650 | 52 | 135 | 3.0 | 8.0 | 0.00 | 0.07 | 0.07 | 99 | 1018.9 |
| 20260901112145 | 51 | 159 | 2.0 | 7.0 | 0.00 | 0.07 | 0.07 | 99 | 1018.9 |
| 20260901111644 | 51 | 96 | 1.0 | 5.0 | 0.00 | 0.07 | 0.07 | 99 | 1018.8 |
| 20260901111144 | 51 | 95 | 4.0 | 5.0 | 0.00 | 0.07 | 0.07 | 99 | 1018.9 |
| 20260901110638 | 51 | 90 | 2.0 | 3.0 | 0.00 | 0.07 | 0.07 | 99 | 1018.9 |
| 20260901110134 | 51 | 90 | 0.0 | 4.0 | 0.00 | 0.07 | 0.07 | 99 | 1018.8 |
| 20260901105630 | 51 | 99 | 0.0 | 2.0 | 0.00 | 0.07 | 0.07 | 99 | 1018.9 |
| 20260901105129 | 51 | 109 | 0.0 | 2.0 | 0.00 | 0.07 | 0.07 | 99 | 1018.7 |
| 20260901104626 | 52 | 98 | 0.0 | 2.0 | 0.00 | 0.07 | 0.07 | 99 | 1018.9 |
| 20260901104121 | 52 | 32 | 2.0 | 3.0 | 0.00 | 0.07 | 0.07 | 99 | 1018.8 |
| 20260901103620 | 52 | 90 | 0.0 | 1.0 | 0.00 | 0.07 | 0.07 | 99 | 1018.9 |
| 20260901103116 | 52 | 95 | 0.0 | 2.0 | 0.00 | 0.07 | 0.07 | 99 | 1019.0 |
| 20260901102610 | 52 | 90 | 1.0 | 3.0 | 0.00 | 0.07 | 0.07 | 99 | 1019.1 |
| 20260901102105 | 52 | 103 | 1.0 | 2.0 | 0.00 | 0.07 | 0.07 | 99 | 1019.1 |
| 20260901101601 | 52 | 90 | 0.0 | 0.0 | 0.02 | 0.07 | 0.07 | 99 | 1019.1 |
| 20260901101100 | 52 | 98 | 2.0 | 3.0 | 0.02 | 0.07 | 0.07 | 98 | 1019.3 |
| 20260901100600 | 52 | 95 | 2.0 | 5.0 | 0.05 | 0.07 | 0.07 | 98 | 1019.3 |
| 20260901100054 | 52 | 115 | 2.0 | 2.0 | 0.07 | 0.07 | 0.07 | 97 | 1019.5 |
| 20260901095553 | 53 | 78 | 0.0 | 3.0 | 0.09 | 0.06 | 0.06 | 97 | 1019.5 |
| 20260901095050 | 52 | 81 | 5.0 | 7.0 | 0.07 | 0.05 | 0.05 | 97 | 1019.8 |
| 20260901094546 | 53 | 100 | 4.0 | 5.0 | 0.05 | 0.04 | 0.04 | 97 | 1019.8 |
| 20260901094045 | 53 | 81 | 0.0 | 1.0 | 0.05 | 0.04 | 0.04 | 95 | 1019.6 |
| 20260901093540 | 53 | 49 | 2.0 | 3.0 | 0.07 | 0.04 | 0.04 | 95 | 1019.9 |
| 20260901093035 | 53 | 103 | 2.0 | 3.0 | 0.07 | 0.03 | 0.03 | 94 | 1020.0 |
| 20260901092531 | 54 | 132 | 2.0 | 5.0 | 0.02 | 0.02 | 0.02 | 92 | 1020.0 |
| 20260901092026 | 54 | 139 | 2.0 | 7.0 | 0.05 | 0.02 | 0.02 | 91 | 1019.8 |
| 20260901091522 | 55 | 146 | 4.0 | 6.0 | 0.02 | 0.01 | 0.01 | 89 | 1019.8 |
| 20260901091021 | 55 | 137 | 5.0 | 8.0 | 0.00 | 0.01 | 0.01 | 86 | 1019.8 |
| 20260901090521 | 56 | 137 | 5.0 | 9.0 | 0.00 | 0.01 | 0.01 | 85 | 1019.9 |
| 20260901090017 | 56 | 133 | 5.0 | 8.0 | 0.00 | 0.01 | 0.01 | 83 | 1019.9 |
| 20260901085512 | 56 | 134 | 5.0 | 6.0 | 0.00 | 0.01 | 0.01 | 82 | 1019.9 |
| 20260901085008 | 56 | 120 | 3.0 | 8.0 | 0.00 | 0.01 | 0.01 | 82 | 1019.9 |
| 20260901084504 | 56 | 144 | 4.0 | 7.0 | 0.00 | 0.01 | 0.01 | 82 | 1020.0 |
| 20260901084001 | 56 | 144 | 3.0 | 6.0 | 0.00 | 0.01 | 0.01 | 82 | 1020.1 |
| 20260901083501 | 56 | 117 | 0.0 | 5.0 | 0.00 | 0.01 | 0.01 | 82 | 1019.9 |
| 20260901082958 | 56 | 115 | 2.0 | 4.0 | 0.00 | 0.01 | 0.01 | 82 | 1019.9 |
| 20260901082454 | 56 | 110 | 4.0 | 4.0 | 0.00 | 0.01 | 0.01 | 82 | 1019.9 |
| 20260901081949 | 56 | 97 | 3.0 | 6.0 | 0.00 | 0.01 | 0.01 | 82 | 1019.9 |
| 20260901081443 | 56 | 137 | 4.0 | 5.0 | 0.00 | 0.01 | 0.01 | 83 | 1020.0 |
| 20260901080933 | 56 | 106 | 4.0 | 7.0 | 0.00 | 0.01 | 0.01 | 83 | 1019.9 |
| 20260901080433 | 55 | 87 | 6.0 | 7.0 | 0.00 | 0.01 | 0.01 | 86 | 1019.9 |
| 20260901075932 | 56 | 79 | 4.0 | 6.0 | 0.00 | 0.01 | 0.01 | 85 | 1020.1 |
| 20260901075427 | 55 | 114 | 5.0 | 6.0 | 0.02 | 0.01 | 0.01 | 84 | 1020.1 |
| 20260901074922 | 56 | 90 | 3.0 | 7.0 | 0.02 | 0.01 | 0.01 | 84 | 1020.2 |
| 20260901074416 | 56 | 107 | 5.0 | 8.0 | 0.00 | 0.00 | 0.00 | 82 | 1020.4 |
| 20260901073912 | 55 | 111 | 5.0 | 7.0 | 0.00 | 0.00 | 0.00 | 84 | 1020.6 |
| 20260901073408 | 56 | 137 | 6.0 | 12.0 | 0.00 | 0.00 | 0.00 | 84 | 1020.4 |
| 20260901072903 | 55 | 122 | 6.0 | 7.0 | 0.02 | 0.00 | 0.00 | 85 | 1020.5 |
| 20260901072403 | 55 | 163 | 3.0 | 7.0 | 0.02 | 0.00 | 0.00 | 85 | 1020.5 |
| 20260901071858 | 56 | 150 | 6.0 | 10.0 | 0.00 | 0.00 | 0.00 | 82 | 1020.5 |
| 20260901071357 | 58 | 160 | 7.0 | 10.0 | 0.00 | 0.00 | 0.00 | 76 | 1020.2 |
| 20260901070856 | 59 | 203 | 2.0 | 17.0 | 0.00 | 0.00 | 0.00 | 72 | 1019.9 |
| 20260901070352 | 59 | 212 | 4.0 | 10.0 | 0.00 | 0.00 | 0.00 | 70 | 1019.8 |
| 20260901065850 | 59 | 217 | 5.0 | 11.0 | 0.00 | 0.00 | 0.00 | 70 | 1019.8 |
| 20260901065346 | 59 | 156 | 2.0 | 4.0 | 0.00 | 0.00 | 0.00 | 67 | 1019.5 |
| 20260901064841 | 59 | 195 | 3.0 | 7.0 | 0.00 | 0.00 | 0.00 | 67 | 1019.5 |
| 20260901064338 | 58 | 180 | 5.0 | 5.0 | 0.00 | 0.00 | 0.00 | 69 | 1019.5 |
| 20260901063835 | 58 | 158 | 5.0 | 5.0 | 0.00 | 0.00 | 0.00 | 72 | 1019.5 |
| 20260901063331 | 57 | 157 | 2.0 | 6.0 | 0.00 | 0.00 | 0.00 | 72 | 1019.4 |